Weather History for Clinton, OK

Change the Weather History Date:

Tuesday, March 4, 2014

  Actual Average (KCSM) Record (KCSM)
Temperature  
Mean Temperature 34 °F -  
Max Temperature 51 °F 54 °F 80 °F (2009)
Min Temperature 17 °F 31 °F 17 °F (2002)
Degree Days  
Heating Degree Days 31    
Moisture  
Dew Point 20 °F    
Average Humidity 64    
Maximum Humidity 86    
Minimum Humidity 33    
Precipitation  
Precipitation 0.00 in - - ()
Sea Level Pressure  
Sea Level Pressure 30.05 in    
Wind  
Wind Speed 10 mph (South)    
Max Wind Speed 17 mph    
Max Gust Speed 23 mph    
Visibility 10 miles    
Events      
Averages and records for this station are not official NWS values.
T = Trace of Precipitation, MM = Missing Value Source: NWS Daily Summary

Daily Weather History Graph

Daily Weather History Graph

Search for Another Location

Airport:

Trip Planner

Search our weather history database for the weather conditions in past years. The results will help you decide how hot, cold, wet, or windy it might be!

Date:

Astronomy

Mar. 04, 2014 Rise Set
Actual Time 7:01 AM CST 6:33 PM CST
Civil Twilight 6:36 AM CST 6:59 PM CST
Nautical Twilight 6:06 AM CST 7:28 PM CST
Astronomical Twilight 5:37 AM CST 7:58 PM CST
Moon 8:57 AM CST (3/4) 10:32 PM CST (3/4)
Length of Visible Light 12h 23m
Length of Day
11h 32m
Waxing Crescent, 15% of the Moon is Illuminated
Mar 4
Waxing Crescent
Mar 8
First Quarter
Mar 16
Full
Mar 23
Last Quarter
Mar 30
New

Hourly Weather History & Observations

Time (CST) Temp. Windchill Dew Point Humidity Pressure Visibility Wind Dir Wind Speed Gust Speed Precip Events Conditions
12:15 AM 17.6 °F 6.4 °F 10.4 °F 73% 30.22 in 10.0 mi SSE 9.2 mph - N/A   Clear
12:35 AM 17.6 °F 6.4 °F 10.4 °F 73% 30.22 in 10.0 mi SSE 9.2 mph - N/A   Clear
12:55 AM 17.6 °F 5.7 °F 10.4 °F 73% 30.21 in 10.0 mi South 10.4 mph - N/A   Clear
1:15 AM 17.6 °F 6.4 °F 10.4 °F 73% 30.20 in 10.0 mi South 9.2 mph - N/A   Clear
1:35 AM 17.6 °F 6.4 °F 12.2 °F 79% 30.19 in 10.0 mi South 9.2 mph - N/A   Clear
1:55 AM 17.6 °F 6.4 °F 12.2 °F 79% 30.18 in 10.0 mi South 9.2 mph - N/A   Clear
2:15 AM 17.6 °F 7.3 °F 12.2 °F 79% 30.19 in 10.0 mi South 8.1 mph - N/A   Clear
2:35 AM 17.6 °F 8.2 °F 12.2 °F 79% 30.18 in 10.0 mi South 6.9 mph - N/A   Clear
2:55 AM 17.6 °F 8.2 °F 12.2 °F 79% 30.17 in 10.0 mi South 6.9 mph - N/A   Clear
3:15 AM 17.6 °F 8.2 °F 14.0 °F 86% 30.17 in 10.0 mi South 6.9 mph - N/A   Clear
3:35 AM 17.6 °F 9.3 °F 12.2 °F 79% 30.16 in 10.0 mi South 5.8 mph - N/A   Clear
3:55 AM 17.6 °F 10.7 °F 12.2 °F 79% 30.16 in 10.0 mi South 4.6 mph - N/A   Clear
4:20 AM 17.6 °F 8.2 °F 12.2 °F 79% 30.14 in 10.0 mi SSE 6.9 mph - N/A   Clear
4:35 AM 17.6 °F 9.3 °F 12.2 °F 79% 30.14 in 10.0 mi SSE 5.8 mph - N/A   Clear
4:55 AM 17.6 °F 7.3 °F 12.2 °F 79% 30.12 in 10.0 mi SSE 8.1 mph - N/A   Clear
5:15 AM 17.6 °F 7.3 °F 14.0 °F 86% 30.11 in 10.0 mi South 8.1 mph - N/A   Clear
5:35 AM 17.6 °F 10.7 °F 14.0 °F 86% 30.11 in 10.0 mi South 4.6 mph - N/A   Clear
5:55 AM 17.6 °F 7.3 °F 14.0 °F 86% 30.11 in 10.0 mi South 8.1 mph - N/A   Clear
6:15 AM 17.6 °F 7.3 °F 14.0 °F 86% 30.11 in 10.0 mi South 8.1 mph - N/A   Clear
6:35 AM 17.6 °F 7.3 °F 14.0 °F 86% 30.11 in 10.0 mi South 8.1 mph - N/A   Clear
6:55 AM 17.6 °F 7.3 °F 14.0 °F 86% 30.10 in 10.0 mi South 8.1 mph - N/A   Clear
7:15 AM 17.6 °F 10.7 °F 14.0 °F 86% 30.11 in 10.0 mi South 4.6 mph - N/A   Clear
7:35 AM 19.4 °F 8.6 °F 14.0 °F 80% 30.10 in 10.0 mi South 9.2 mph - N/A   Clear
7:55 AM 19.4 °F 7.2 °F 14.0 °F 80% 30.12 in 10.0 mi South 11.5 mph - N/A   Clear
8:15 AM 19.4 °F 10.4 °F 15.8 °F 86% 30.12 in 10.0 mi South 6.9 mph - N/A   Clear
8:35 AM 21.2 °F 14.9 °F 15.8 °F 80% 30.13 in 10.0 mi South 4.6 mph - N/A   Clear
9:00 AM 23.0 °F 14.7 °F 17.6 °F 80% 30.12 in 10.0 mi South 6.9 mph - N/A   Clear
9:15 AM 26.6 °F 16.8 °F 17.6 °F 69% 30.11 in 10.0 mi South 10.4 mph - N/A   Clear
9:35 AM 28.4 °F 19.1 °F 17.6 °F 64% 30.11 in 10.0 mi SSW 10.4 mph - N/A   Clear
9:55 AM 28.4 °F 18.0 °F 17.6 °F 64% 30.10 in 10.0 mi SSW 12.7 mph - N/A   Clear
10:15 AM 30.2 °F 19.8 °F 19.4 °F 64% 30.10 in 10.0 mi SSW 13.8 mph - N/A   Clear
10:35 AM 32.0 °F 22.5 °F 19.4 °F 60% 30.09 in 10.0 mi SSW 12.7 mph 18.4 mph N/A   Clear
10:55 AM 32.0 °F 21.6 °F 21.2 °F 64% 30.09 in 10.0 mi South 15.0 mph - N/A   Clear
11:15 AM 33.8 °F 25.3 °F 19.4 °F 56% 30.09 in 10.0 mi SSW 11.5 mph - N/A   Clear
11:35 AM 33.8 °F 24.8 °F 21.2 °F 60% 30.08 in 10.0 mi South 12.7 mph - N/A   Clear
11:55 AM 35.6 °F 27.5 °F 21.2 °F 56% 30.07 in 10.0 mi SSW 11.5 mph - N/A   Clear
12:15 PM 37.4 °F 30.8 °F 21.2 °F 52% 30.05 in 10.0 mi SSW 9.2 mph - N/A   Clear
12:35 PM 39.2 °F 32.0 °F 23.0 °F 52% 30.05 in 10.0 mi South 11.5 mph - N/A   Clear
12:55 PM 41.0 °F 32.8 °F 23.0 °F 49% 30.03 in 10.0 mi SSW 16.1 mph - N/A   Clear
1:15 PM 42.8 °F 35.4 °F 23.0 °F 46% 30.03 in 10.0 mi SSW 15.0 mph - N/A   Clear
1:40 PM 44.6 °F 37.2 °F 23.0 °F 43% 30.00 in 10.0 mi South 17.3 mph - N/A   Clear
1:55 PM 44.6 °F 37.2 °F 23.0 °F 43% 30.00 in 10.0 mi South 17.3 mph 21.9 mph N/A   Clear
2:15 PM 46.4 °F 39.8 °F 24.8 °F 43% 29.98 in 10.0 mi South 16.1 mph 21.9 mph N/A   Clear
2:35 PM 48.2 °F - 23.0 °F 37% 29.97 in 10.0 mi South 15.0 mph 20.7 mph N/A   Clear
2:55 PM 50.0 °F - 24.8 °F 37% 29.96 in 10.0 mi South 16.1 mph - N/A   Clear
3:15 PM 50.0 °F - 23.0 °F 35% 29.95 in 10.0 mi South 15.0 mph 21.9 mph N/A   Clear
3:35 PM 50.0 °F - 23.0 °F 35% 29.94 in 10.0 mi South 13.8 mph - N/A   Clear
3:55 PM 50.0 °F - 24.8 °F 37% 29.94 in 10.0 mi South 16.1 mph 21.9 mph N/A   Clear
4:15 PM 51.8 °F - 23.0 °F 33% 29.94 in 10.0 mi SSE 13.8 mph - N/A   Clear
4:35 PM 50.0 °F - 24.8 °F 37% 29.93 in 10.0 mi SSE 16.1 mph 23.0 mph N/A   Clear
4:55 PM 50.0 °F - 26.6 °F 40% 29.93 in 10.0 mi SSE 13.8 mph - N/A   Clear
5:15 PM 50.0 °F - 26.6 °F 40% 29.93 in 10.0 mi South 16.1 mph - N/A   Clear
5:35 PM 48.2 °F - 26.6 °F 43% 29.93 in 10.0 mi South 13.8 mph 19.6 mph N/A   Clear
5:55 PM 46.4 °F 41.9 °F 28.4 °F 50% 29.94 in 10.0 mi South 9.2 mph - N/A   Clear
6:15 PM 46.4 °F 41.5 °F 26.6 °F 46% 29.94 in 10.0 mi SSE 10.4 mph - N/A   Clear
6:35 PM 44.6 °F 39.7 °F 28.4 °F 53% 29.94 in 10.0 mi SSE 9.2 mph - N/A   Clear
6:55 PM 42.8 °F 37.0 °F 28.4 °F 57% 29.94 in 10.0 mi SSE 10.4 mph - N/A   Clear
7:15 PM 42.8 °F 37.5 °F 28.4 °F 57% 29.95 in 10.0 mi SSE 9.2 mph - N/A   Clear
7:35 PM 41.0 °F 34.7 °F 28.4 °F 61% 29.95 in 10.0 mi SSE 10.4 mph - N/A   Clear
7:55 PM 41.0 °F 35.2 °F 28.4 °F 61% 29.95 in 10.0 mi SSE 9.2 mph - N/A   Clear
8:15 PM 41.0 °F 35.2 °F 26.6 °F 57% 29.94 in 10.0 mi SE 9.2 mph - N/A   Clear
8:35 PM 39.2 °F 33.6 °F 26.6 °F 61% 29.95 in 10.0 mi SE 8.1 mph - N/A   Clear
8:55 PM 37.4 °F 30.8 °F 26.6 °F 65% 29.95 in 10.0 mi SE 9.2 mph - N/A   Clear
9:15 PM 37.4 °F 30.8 °F 26.6 °F 65% 29.95 in 10.0 mi SE 9.2 mph - N/A   Clear
9:35 PM 37.4 °F 30.8 °F 26.6 °F 65% 29.95 in 10.0 mi SSE 9.2 mph - N/A   Clear
9:55 PM 37.4 °F 30.8 °F 26.6 °F 65% 29.96 in 10.0 mi SE 9.2 mph - N/A   Clear
10:15 PM 37.4 °F 30.3 °F 26.6 °F 65% 29.96 in 10.0 mi SE 10.4 mph - N/A   Clear
10:35 PM 37.4 °F 29.8 °F 26.6 °F 65% 29.96 in 10.0 mi SSE 11.5 mph - N/A   Clear
10:55 PM 37.4 °F 29.8 °F 26.6 °F 65% 29.96 in 10.0 mi SE 11.5 mph - N/A   Clear
11:15 PM 35.6 °F 28.0 °F 26.6 °F 70% 29.96 in 10.0 mi SSE 10.4 mph - N/A   Clear
11:35 PM 35.6 °F 26.6 °F 26.6 °F 70% 29.96 in 10.0 mi SE 13.8 mph - N/A   Clear
11:55 PM 35.6 °F 26.6 °F 26.6 °F 70% 29.95 in 10.0 mi SSE 13.8 mph - N/A   Clear